PROMETHEUS 2-7 (44374 NORAD) Tracking and Keplerian Element Data

This shows tracking and keplerian element data for the satellite.

Feedback or suggestion? Click here.




ElementValue
Catalog44374
NamePROMETHEUS 2-7
Epoch Orbit441
Epoch Day210.10171669
Epoch Year2019
RAAN123.5855
Inclination45.0118
Eccentricity0.0008329
Argument of Perigee85.7651
Mean Anonmoly274.4362
Mean Motion15.37418199
Decay Rate-3.37E-06
L11 44374U 19037K 19210.10171669 -.00000337 00000-0 00000+0 0 9999
L22 44374 45.0118 123.5855 0008329 85.7651 274.4362 15.37418199 4411

Live tracking and technical data element details for PROMETHEUS 2-7 (NORAD 44374). PROMETHEUS 2-7 can be tracked NOW for your location showing map with azimuth and elevation plus other details from your city location.

Track the satellite on the map from your city or location and see movement details for azimuth, elevation, latitude, longitude, range, height, and movement on the map or in text.







IsCatalogInMostPopularTable: catalog: 44374, numindb: 16
Update: records affected: 1



GetName: 44374 PROMETHEUS 2-7

Hit Count: updated at: Wed, 23 Oct 2019 00:02:14 GMT